Simultaneous Nadir Overpasses (SNOs) Predictions

Prediction of SNOs between GOES-17 and NPP Satellite Orbit:

Table of predicted SNOs for the next 14.0 days since TLE Epoch: 7/27/2024
Index Date Time (GOES-17) GOES-17 Lat,Lon NPP Lat,Lon Distance(km) Time Diff (sec)
1 07/27/2024 20:27:32 0.02,-104.72 -0.27,-105.96 142.01 80
2 07/28/2024 20:11:28 0.02,-104.72 0.76,-101.44 374.10 80
3 07/30/2024 08:33:17 -0.02,-104.71 0.44,-106.71 228.52 80
4 07/31/2024 08:11:53 -0.03,-104.70 -0.60,-102.19 287.27 80
5 08/01/2024 20:33:50 0.03,-104.72 -0.61,-107.49 316.92 80
6 08/02/2024 20:17:47 0.04,-104.72 0.43,-102.97 199.24 80
7 08/04/2024 08:39:35 -0.04,-104.71 0.76,-108.24 402.62 80
8 08/05/2024 08:18:12 -0.04,-104.71 -0.29,-103.72 113.69 80
9 08/06/2024 20:40:09 0.05,-104.73 -0.91,-109.03 489.97 80
10 08/07/2024 20:24:05 0.05,-104.73 0.08,-104.49 26.92 80
